Find Starlink 34125

NORAD ID: 63901 Int'l Des: 2025-095 Owner: SPXS Country: US Constellation: starlink operational
LEOCIRCULAR

实时位置

正在加载3D地球...

关于 Starlink 34125

正在加载描述...

即将过境

Passes for default location (London). Set your location on the main map for personalized predictions.

高度历史

Loading altitude history...

两行轨道根数

1 63901U 25095M 26105.01813597 .00011279 00000-0 41864-3 0 9994
2 63901 43.0099 331.0622 0004187 260.2558 99.7821 15.27585406 53334
Epoch: Apr 15, 2026 • Age: 13 hours

当前状态

高度 483.0 km
速度 7.63 km/s
星下点 9.66°N, 60.92°W
发射日期 May 10, 2025
运行时间 0.9 years
类型 internet

技术详情

分类 Payload
质量 575.00 kg
干质量 530.00 kg
总质量 575.00 kg
长度 0.30 m
直径 4.10 m
跨度 29.00 m
形状 Box + pan
制造商 SPXS
平台类型 Starlink V2MO
阶段状态 In Orbit
所有者/国家 SPXS/US

Most Searched